カタログに戻る

DELTA 1 DEB

運用中SSO
NORAD 42661·DEBRIS·🇺🇸 United States

打ち上げ Jun 12, 1975 から Vandenberg Space Force Base

Loading…

次のパス (今後24時間)

TLE

最新Source: Space-Track

元期: Sep 13, 2026, 07:01 UTC

1 42661U 75052MW  26256.29236513  .00000518  00000-0  16677-3 0  9994
2 42661  98.7887 277.4024 0004683  45.0986 315.0582 14.43578840672651

AllMySatでDELTA 1 DEBをリアルタイム追跡

Download on the App Store